Pian Rosa, Italy

12:17 PM CET on February 23, 2017 (GMT +0100)
Pian Rosa

Weather History for LIMH - October, 2012

Change the Weather History Date:

Friday, October 5, 2012

  Actual Average Record
Temperature  
Mean Temperature 33 °F -  
Max Temperature 36 °F 28 °F 39 °F (2007)
Min Temperature 30 °F 20 °F 14 °F (1996)
Degree Days  
Heating Degree Days 32    
Moisture  
Dew Point 13 °F    
Average Humidity 45    
Maximum Humidity 75    
Minimum Humidity 8    
Precipitation  
Precipitation 0.00 in - - ()
Sea Level Pressure  
Sea Level Pressure 30.39 in    
Wind  
Wind Speed 7 mph ()    
Max Wind Speed 18 mph    
Max Gust Speed -    
Visibility 8.2 miles    
Events      
Averages and records for this station are not official NWS values.
T = Trace of Precipitation, MM = Missing Value Source: Averaged Metar Reports

Daily Weather History Graph

Daily Weather History Graph

Search for Another Location

Airport or City:

Trip Planner

Search our weather history database for the weather conditions in past years. The results will help you decide how hot, cold, wet, or windy it might be!

Date:

Astronomy

Oct. 05, 2012 Rise Set
Actual Time 7:33 AM CEST 7:01 PM CEST
Civil Twilight 7:03 AM CEST 7:30 PM CEST
Nautical Twilight 6:28 AM CEST 8:05 PM CEST
Astronomical Twilight 5:53 AM CEST 8:40 PM CEST
Moon 9:56 PM CEST (10/5) 12:42 PM CEST (10/5)
Length of Visible Light 12h 27m
Length of Day
11h 28m
Waning Gibbous, 76% of the Moon is Illuminated
Oct 5
Waning Gibbous
Oct 8
Last Quarter
Oct 15
New
Oct 22
First Quarter
Oct 29
Full

Hourly Weather History & Observations

Time (CEST) Temp. Windchill Dew Point Humidity Pressure Visibility Wind Dir Wind Speed Gust Speed Precip Events Conditions
12:55 AM 30.2 °F 18.1 °F 12.2 °F 47% 30.33 in - West 18.4 mph - N/A   Clear
1:55 AM 30.2 °F 20.8 °F 12.2 °F 47% 30.36 in - West 11.5 mph - N/A   Clear
2:00 AM 30 °F - 12 °F 32%  in 9 mi West 11.5 mph - -  
2:55 AM 30.2 °F 23.4 °F 10.4 °F 44% 30.36 in - West 6.9 mph - N/A   Clear
3:55 AM 30.2 °F 21.9 °F 12.2 °F 47% 30.36 in - NW 9.2 mph - N/A   Clear
4:55 AM 30.2 °F 23.4 °F 12.2 °F 47% 30.33 in - West 6.9 mph - N/A   Clear
5:00 AM 31 °F - 13 °F 33%  in 9 mi West 6.9 mph - -  
5:55 AM 30.2 °F 25.4 °F 14.0 °F 51% 30.36 in - NNE 4.6 mph - N/A   Clear
6:55 AM 30.2 °F 21.9 °F 12.2 °F 47% 30.36 in - WNW 9.2 mph - N/A   Clear
7:55 AM 32.0 °F 25.6 °F 14.0 °F 48% 30.36 in - NW 6.9 mph - N/A   Clear
8:00 AM 32 °F - 13 °F 32%  in 47 mi NW 6.9 mph - -  
8:55 AM 32.0 °F 25.6 °F 12.2 °F 44% 30.36 in - WNW 6.9 mph - N/A   Clear
9:55 AM 32.0 °F - 14.0 °F 48% 30.36 in - Variable 2.3 mph - N/A   Clear
10:55 AM 35.6 °F - 14.0 °F 41% 30.39 in - Variable 2.3 mph - N/A   Clear
11:00 AM 35 °F - 15 °F 29%  in 47 mi 2.3 mph - -   Clear
11:55 AM 35.6 °F 32.8 °F 15.8 °F 44% 30.39 in - Variable 3.5 mph - N/A   Clear
12:55 PM 35.6 °F 31.7 °F 21.2 °F 56% 30.39 in - SSW 4.6 mph - N/A   Clear
1:55 PM 33.8 °F 26.4 °F 26.6 °F 75% 30.42 in 6.2 mi SSW 9.2 mph - N/A   Partly Cloudy
2:00 PM 35 °F - 26 °F 58%  in 47 mi SSW 9.2 mph - -   Scattered Clouds
2:55 PM 33.8 °F 26.4 °F 23.0 °F 65% 30.42 in 6.2 mi SSW 9.2 mph - N/A   Partly Cloudy
3:55 PM 33.8 °F 27.0 °F 17.6 °F 52% 30.42 in 6.2 mi SW 8.1 mph - N/A   Partly Cloudy
5:00 PM 34 °F - 25 °F 58%  in 31 mi WSW 6.9 mph - -   Scattered Clouds
5:55 PM 33.8 °F 26.4 °F 21.2 °F 60% 30.39 in - SSW 9.2 mph - N/A   Clear
6:55 PM 32.0 °F 25.6 °F 19.4 °F 60% 30.42 in - SW 6.9 mph - N/A   Clear
7:55 PM 30.2 °F 23.4 °F 17.6 °F 60% 30.42 in - SW 6.9 mph - N/A   Clear
8:00 PM 30 °F - 17 °F 46%  in 12 mi SW 6.9 mph - -  
8:55 PM 30.2 °F 26.7 °F 15.8 °F 55% 30.45 in - Variable 3.5 mph - N/A   Clear
9:55 PM 32.0 °F - 1.4 °F 27% 30.45 in - Variable 2.3 mph - N/A   Clear
10:55 PM 32.0 °F 28.7 °F -5.8 °F 20% 30.45 in - Variable 3.5 mph - N/A   Clear
11:00 PM 32 °F - -6 °F 8%  in 9 mi 3.5 mph - -   Partly Cloudy
11:55 PM 32.0 °F - -16.6 °F 12% 30.42 in - Variable 2.3 mph - N/A   Clear